When you browse on this site, cookies collect data to enhance your experience and personalize the content and advertising you see.
Visit our Privacy Policy to learn more. By continuing to use the site, you agree to this use of cookies and data.
  • In Netherlands
  • List of Countries
  • For 7 days
  • Water Temperature
  • Satellite Maps
  • Weather Map
  • Weather Widgets
  • user-avatar
    Login

    Hourly Weather Cordoba

    Today, 18 November, Sunday

    Time Temperature Precipitation Wind Pressure Humidity
    00:00 +16°C° 0 mm 2 mps 747 mmHg 74%
    01:00 +16°C° 0 mm 2 mps 746 mmHg 75%
    02:00 +16°C° 0 mm 2 mps 746 mmHg 76%
    03:00 +16°C° 0 mm 2 mps 745 mmHg 77%
    04:00 +15°C° 0 mm 2 mps 745 mmHg 78%
    05:00 +15°C° 0 mm 2 mps 745 mmHg 79%
    06:00 +15°C° 0 mm 2 mps 745 mmHg 79%
    07:00 +15°C° 0.8 mm 1 mps 744 mmHg 79%
    08:00 +15°C° 0.8 mm 1 mps 744 mmHg 79%
    09:00 +16°C° 0.8 mm 1 mps 744 mmHg 79%
    10:00 +15°C° 1.7 mm 1 mps 744 mmHg 81%
    11:00 +15°C° 1.7 mm 1 mps 744 mmHg 83%
    12:00 +15°C° 1.7 mm 2 mps 744 mmHg 85%
    13:00 +15°C° 1 mm 2 mps 744 mmHg 83%
    14:00 +16°C° 1 mm 2 mps 743 mmHg 82%
    15:00 +16°C° 1 mm 2 mps 743 mmHg 81%
    16:00 +15°C° 0.5 mm 2 mps 743 mmHg 83%
    17:00 +15°C° 0.5 mm 1 mps 743 mmHg 86%
    18:00 +14°C° 0.5 mm 1 mps 743 mmHg 88%
    19:00 +14°C° 0.1 mm 1 mps 743 mmHg 88%
    20:00 +14°C° 0.1 mm 1 mps 743 mmHg 88%
    21:00 +14°C° 0.1 mm 1 mps 743 mmHg 88%
    22:00 +13°C° 0 mm 1 mps 743 mmHg 89%
    23:00 +13°C° 0 mm 1 mps 742 mmHg 89%

    Tomorrow, 19 November, Monday

    Time Temperature Precipitation Wind Pressure Humidity
    00:00 +13°C° 0 mm 1 mps 742 mmHg 89%
    01:00 +13°C° 0.1 mm 1 mps 742 mmHg 89%
    02:00 +13°C° 0.1 mm 1 mps 742 mmHg 89%
    03:00 +13°C° 0.1 mm 1 mps 742 mmHg 89%
    04:00 +13°C° 0.1 mm 1 mps 742 mmHg 90%
    05:00 +13°C° 0.1 mm 1 mps 742 mmHg 90%
    06:00 +12°C° 0.1 mm 0 mps 742 mmHg 91%
    07:00 +12°C° 0.3 mm 0 mps 743 mmHg 90%
    08:00 +13°C° 0.3 mm 1 mps 743 mmHg 89%
    09:00 +14°C° 0.3 mm 1 mps 743 mmHg 87%
    10:00 +14°C° 0.4 mm 1 mps 743 mmHg 85%
    11:00 +15°C° 0.4 mm 1 mps 743 mmHg 82%
    12:00 +15°C° 0.4 mm 2 mps 743 mmHg 80%
    13:00 +15°C° 0.4 mm 2 mps 743 mmHg 79%
    14:00 +16°C° 0.4 mm 2 mps 743 mmHg 79%
    15:00 +16°C° 0.4 mm 2 mps 743 mmHg 78%
    16:00 +15°C° 0.2 mm 2 mps 743 mmHg 81%
    17:00 +15°C° 0.2 mm 2 mps 743 mmHg 84%
    18:00 +14°C° 0.2 mm 2 mps 744 mmHg 87%
    19:00 +14°C° 0.1 mm 2 mps 744 mmHg 88%
    20:00 +14°C° 0.1 mm 2 mps 745 mmHg 89%
    21:00 +13°C° 0.1 mm 2 mps 745 mmHg 91%
    22:00 +13°C° 0.1 mm 2 mps 745 mmHg 91%
    23:00 +13°C° 0.1 mm 2 mps 745 mmHg 92%

    Day after tomorrow, 20 November, Tuesday

    Time Temperature Precipitation Wind Pressure Humidity
    00:00 +12°C° 0.1 mm 2 mps 745 mmHg 93%
    01:00 +12°C° 0 mm 2 mps 745 mmHg 94%
    02:00 +12°C° 0 mm 2 mps 745 mmHg 94%
    03:00 +12°C° 0 mm 2 mps 745 mmHg 94%
    04:00 +12°C° 0 mm 2 mps 745 mmHg 95%
    05:00 +12°C° 0 mm 2 mps 745 mmHg 95%
    06:00 +10°C° 0 mm 2 mps 745 mmHg 95%
    07:00 +12°C° 0 mm 2 mps 746 mmHg 92%
    08:00 +13°C° 0 mm 2 mps 746 mmHg 90%
    09:00 +12°C° 0 mm 3 mps 746 mmHg 87%
    10:00 +14°C° 0 mm 3 mps 746 mmHg 81%
    11:00 +15°C° 0 mm 4 mps 746 mmHg 76%
    12:00 +16°C° 0 mm 5 mps 746 mmHg 70%
    13:00 +16°C° 0.1 mm 5 mps 746 mmHg 68%
    14:00 +16°C° 0.1 mm 6 mps 745 mmHg 66%
    15:00 +16°C° 0.1 mm 7 mps 745 mmHg 64%
    16:00 +15°C° 0.1 mm 6 mps 746 mmHg 70%
    17:00 +14°C° 0.1 mm 5 mps 746 mmHg 76%
    18:00 +13°C° 0.1 mm 4 mps 746 mmHg 81%
    19:00 +13°C° 0.1 mm 4 mps 747 mmHg 83%
    20:00 +12°C° 0.1 mm 4 mps 747 mmHg 84%
    21:00 +12°C° 0.1 mm 4 mps 748 mmHg 86%
    22:00 +12°C° 0.1 mm 4 mps 748 mmHg 88%
    23:00 +11°C° 0.1 mm 4 mps 748 mmHg 90%

    21 November, Wednesday

    Time Temperature Precipitation Wind Pressure Humidity
    00:00 +11°C° 0.1 mm 4 mps 748 mmHg 92%
    01:00 +11°C° 0.1 mm 4 mps 748 mmHg 92%
    02:00 +11°C° 0.1 mm 4 mps 748 mmHg 93%
    03:00 +10°C° 0.1 mm 3 mps 748 mmHg 93%
    04:00 +10°C° 0 mm 3 mps 748 mmHg 93%
    05:00 +10°C° 0 mm 3 mps 749 mmHg 92%
    06:00 +10°C° 0 mm 3 mps 749 mmHg 91%
    07:00 +11°C° 0 mm 3 mps 749 mmHg 89%
    08:00 +11°C° 0 mm 4 mps 750 mmHg 86%
    09:00 +12°C° 0 mm 4 mps 750 mmHg 84%
    10:00 +13°C° 0 mm 4 mps 750 mmHg 77%
    11:00 +14°C° 0 mm 4 mps 750 mmHg 71%
    12:00 +15°C° 0 mm 5 mps 750 mmHg 64%
    13:00 +15°C° 0 mm 5 mps 750 mmHg 63%
    14:00 +15°C° 0 mm 5 mps 750 mmHg 61%
    15:00 +15°C° 0 mm 5 mps 750 mmHg 60%
    16:00 +14°C° 0.2 mm 4 mps 750 mmHg 66%
    17:00 +13°C° 0.2 mm 3 mps 750 mmHg 73%
    18:00 +12°C° 0.2 mm 3 mps 751 mmHg 80%
    19:00 +13°C° 0.1 mm 2 mps 751 mmHg 82%
    20:00 +12°C° 0.1 mm 2 mps 751 mmHg 85%
    21:00 +10°C° 0.1 mm 2 mps 752 mmHg 87%
    22:00 +10°C° 0 mm 2 mps 752 mmHg 88%
    23:00 +11°C° 0 mm 1 mps 752 mmHg 89%

    22 November, Thursday

    Time Temperature Precipitation Wind Pressure Humidity
    00:00 +11°C° 0 mm 1 mps 752 mmHg 90%
    01:00 +11°C° 0 mm 1 mps 751 mmHg 90%
    02:00 +10°C° 0 mm 1 mps 751 mmHg 91%
    03:00 +10°C° 0 mm 1 mps 751 mmHg 91%
    04:00 +10°C° 0.1 mm 1 mps 751 mmHg 91%
    05:00 +11°C° 0.1 mm 1 mps 751 mmHg 91%
    06:00 +11°C° 0.1 mm 1 mps 751 mmHg 91%
    07:00 +11°C° 0.2 mm 1 mps 752 mmHg 88%
    08:00 +12°C° 0.2 mm 1 mps 752 mmHg 86%
    09:00 +12°C° 0.2 mm 1 mps 752 mmHg 83%
    10:00 +13°C° 0.4 mm 2 mps 752 mmHg 82%
    11:00 +13°C° 0.4 mm 2 mps 752 mmHg 80%
    12:00 +13°C° 0.4 mm 3 mps 752 mmHg 79%
    13:00 +13°C° 0.1 mm 3 mps 752 mmHg 77%
    14:00 +13°C° 0.1 mm 3 mps 752 mmHg 74%
    15:00 +14°C° 0.1 mm 3 mps 752 mmHg 72%
    16:00 +14°C° 0.1 mm 2 mps 752 mmHg 76%
    17:00 +13°C° 0.1 mm 2 mps 752 mmHg 81%
    18:00 +12°C° 0.1 mm 1 mps 752 mmHg 86%
    19:00 +12°C° 0.2 mm 1 mps 753 mmHg 86%
    20:00 +12°C° 0.2 mm 1 mps 753 mmHg 87%
    21:00 +12°C° 0.2 mm 1 mps 754 mmHg 87%
    22:00 +12°C° 0.1 mm 1 mps 754 mmHg 88%
    23:00 +12°C° 0.1 mm 1 mps 754 mmHg 88%

    23 November, Friday

    Time Temperature Precipitation Wind Pressure Humidity
    00:00 +12°C° 0.1 mm 1 mps 754 mmHg 89%
    01:00 +12°C° 0.2 mm 1 mps 754 mmHg 89%
    02:00 +12°C° 0.2 mm 1 mps 754 mmHg 89%
    03:00 +12°C° 0.2 mm 1 mps 754 mmHg 89%
    04:00 +12°C° 0.2 mm 1 mps 754 mmHg 90%
    05:00 +11°C° 0.2 mm 1 mps 754 mmHg 90%
    06:00 +11°C° 0.2 mm 1 mps 754 mmHg 90%
    07:00 +12°C° 0 mm 1 mps 754 mmHg 87%
    08:00 +13°C° 0 mm 1 mps 755 mmHg 84%
    09:00 +13°C° 0 mm 1 mps 755 mmHg 81%
    10:00 +14°C° 0.1 mm 1 mps 755 mmHg 77%
    11:00 +15°C° 0.1 mm 1 mps 754 mmHg 72%
    12:00 +16°C° 0.1 mm 1 mps 754 mmHg 67%
    13:00 +16°C° 0 mm 1 mps 754 mmHg 66%
    14:00 +16°C° 0 mm 1 mps 753 mmHg 64%
    15:00 +18°C° 0 mm 1 mps 753 mmHg 63%
    16:00 +16°C° 0.2 mm 1 mps 753 mmHg 69%
    17:00 +15°C° 0.2 mm 1 mps 753 mmHg 75%
    18:00 +14°C° 0.2 mm 1 mps 754 mmHg 82%
    19:00 +14°C° 0.2 mm 1 mps 754 mmHg 84%
    20:00 +13°C° 0.2 mm 1 mps 754 mmHg 86%
    21:00 +13°C° 0.2 mm 1 mps 754 mmHg 88%
    22:00 +13°C° 0.3 mm 1 mps 754 mmHg 90%
    23:00 +13°C° 0.3 mm 1 mps 754 mmHg 91%
    Show more